Weather History for Madison, SD

Change the Weather History Date:

Saturday, June 8, 2013

  Actual Average Record
Temperature  
Mean Temperature 55 °F -  
Max Temperature 59 °F 78 °F 86 °F (2012)
Min Temperature 51 °F 55 °F 46 °F (2014)
Degree Days  
Heating Degree Days 10    
Growing Degree Days 5 (Base 50)    
Moisture  
Dew Point 54 °F    
Average Humidity 95    
Maximum Humidity 100    
Minimum Humidity 72    
Precipitation  
Precipitation 0.10 in - - ()
Sea Level Pressure  
Sea Level Pressure 29.78 in    
Wind  
Wind Speed 17 mph (SE)    
Max Wind Speed 23 mph    
Max Gust Speed 30 mph    
Visibility 9 miles    
Events Rain    
Averages and records for this station are not official NWS values.
T = Trace of Precipitation, MM = Missing Value Source: NWS Daily Summary

Daily Weather History Graph

Daily Weather History Graph

Search for Another Location

Airport:

Trip Planner

Search our weather history database for the weather conditions in past years. The results will help you decide how hot, cold, wet, or windy it might be!

Date:

Astronomy

Jun. 08, 2013 Rise Set
Actual Time 5:45 AM CDT 9:09 PM CDT
Civil Twilight 5:09 AM CDT 9:45 PM CDT
Nautical Twilight 4:22 AM CDT 10:32 PM CDT
Astronomical Twilight 3:23 AM CDT 11:31 PM CDT
Moon 5:56 AM CDT (6/8) 9:10 PM CDT (6/8)
Length of Visible Light 16h 35m
Length of Day
15h 23m
New Moon, 0% of the Moon is Illuminated
Jun 8
New Moon
Jun 16
First Quarter
Jun 23
Full
Jun 29
Last Quarter
Jul 8
New

Hourly Weather History & Observations

Time (CDT) Temp. Dew Point Humidity Pressure Visibility Wind Dir Wind Speed Gust Speed Precip Events Conditions
12:10 AM 59.0 °F 50.0 °F 72% 29.86 in 10.0 mi SSE 13.8 mph - N/A   Clear
12:30 AM 57.2 °F 50.0 °F 77% 29.86 in 10.0 mi SSE 16.1 mph 21.9 mph N/A   Partly Cloudy
12:50 AM 57.2 °F 50.0 °F 77% 29.86 in 10.0 mi SSE 16.1 mph 23.0 mph N/A   Clear
1:10 AM 57.2 °F 50.0 °F 77% 29.85 in 10.0 mi SSE 16.1 mph 24.2 mph N/A   Mostly Cloudy
1:30 AM 57.2 °F 50.0 °F 77% 29.85 in 10.0 mi SSE 15.0 mph 21.9 mph N/A   Mostly Cloudy
1:50 AM 57.2 °F 50.0 °F 77% 29.85 in 10.0 mi SSE 15.0 mph 20.7 mph N/A   Scattered Clouds
2:10 AM 57.2 °F 50.0 °F 77% 29.84 in 10.0 mi SSE 16.1 mph 20.7 mph N/A   Clear
2:30 AM 57.2 °F 50.0 °F 77% 29.84 in 10.0 mi SSE 17.3 mph 24.2 mph N/A   Clear
2:50 AM 55.4 °F 50.0 °F 82% 29.84 in 10.0 mi SE 13.8 mph - N/A   Clear
3:10 AM 57.2 °F 50.0 °F 77% 29.84 in 10.0 mi SSE 13.8 mph 20.7 mph N/A   Scattered Clouds
3:30 AM 57.2 °F 50.0 °F 77% 29.83 in 10.0 mi SE 15.0 mph 21.9 mph N/A   Overcast
3:50 AM 57.2 °F 48.2 °F 72% 29.82 in 10.0 mi SE 16.1 mph 21.9 mph N/A   Overcast
4:10 AM 57.2 °F 50.0 °F 77% 29.81 in 10.0 mi SE 16.1 mph 21.9 mph N/A   Overcast
4:30 AM 57.2 °F 50.0 °F 77% 29.80 in 10.0 mi SE 16.1 mph 21.9 mph N/A   Overcast
4:50 AM 55.4 °F 50.0 °F 82% 29.80 in 10.0 mi SE 15.0 mph 23.0 mph N/A   Overcast
5:10 AM 55.4 °F 50.0 °F 82% 29.81 in 10.0 mi SSE 15.0 mph 20.7 mph N/A   Overcast
5:30 AM 55.4 °F 50.0 °F 82% 29.80 in 10.0 mi SSE 15.0 mph - N/A   Overcast
5:50 AM 53.6 °F 53.6 °F 100% 29.80 in 10.0 mi SSE 16.1 mph 19.6 mph N/A Rain Light Rain
6:10 AM 53.6 °F 53.6 °F 100% 29.81 in 10.0 mi SSE 16.1 mph - N/A Rain Light Rain
6:30 AM 53.6 °F 53.6 °F 100% 29.81 in 8.0 mi South 19.6 mph 26.5 mph N/A Rain Light Rain
6:50 AM 53.6 °F 53.6 °F 100% 29.81 in 2.5 mi SSE 18.4 mph 26.5 mph 0.06 in Rain Light Rain
7:10 AM 51.8 °F 51.8 °F 100% 29.80 in 4.0 mi SSE 23.0 mph - N/A   Scattered Clouds
7:30 AM 53.6 °F 53.6 °F 100% 29.80 in 5.0 mi SSE 19.6 mph 27.6 mph N/A   Partly Cloudy
7:50 AM 53.6 °F 53.6 °F 100% 29.80 in 5.0 mi SSE 20.7 mph 26.5 mph N/A   Clear
8:10 AM 53.6 °F 53.6 °F 100% 29.79 in 10.0 mi SSE 23.0 mph 27.6 mph N/A Rain Light Rain
8:30 AM 53.6 °F 53.6 °F 100% 29.79 in 10.0 mi SSE 20.7 mph - N/A Rain Light Rain
8:50 AM 53.6 °F 53.6 °F 100% 29.79 in 10.0 mi SSE 17.3 mph 24.2 mph N/A   Scattered Clouds
9:10 AM 53.6 °F 53.6 °F 100% 29.79 in 10.0 mi SE 19.6 mph 26.5 mph N/A   Mostly Cloudy
9:30 AM 53.6 °F 53.6 °F 100% 29.79 in 10.0 mi SE 15.0 mph 23.0 mph N/A Rain Light Rain
9:50 AM 53.6 °F 53.6 °F 100% 29.78 in 10.0 mi SE 18.4 mph 23.0 mph N/A   Overcast
10:10 AM 53.6 °F 53.6 °F 100% 29.77 in 10.0 mi SE 19.6 mph 26.5 mph N/A   Overcast
10:30 AM 53.6 °F 53.6 °F 100% 29.77 in 10.0 mi SE 18.4 mph 25.3 mph N/A   Overcast
10:50 AM 53.6 °F 53.6 °F 100% 29.77 in 10.0 mi SSE 19.6 mph 29.9 mph N/A   Overcast
11:10 AM 53.6 °F 53.6 °F 100% 29.77 in 10.0 mi SE 17.3 mph 25.3 mph N/A Rain Light Rain
11:30 AM 55.4 °F 55.4 °F 100% 29.77 in 10.0 mi SE 19.6 mph 25.3 mph N/A   Mostly Cloudy
11:50 AM 55.4 °F 55.4 °F 100% 29.77 in 10.0 mi SE 18.4 mph 26.5 mph N/A   Overcast
12:10 PM 55.4 °F 55.4 °F 100% 29.77 in 10.0 mi SE 19.6 mph 25.3 mph N/A   Overcast
12:30 PM 55.4 °F 55.4 °F 100% 29.76 in 10.0 mi SSE 17.3 mph 24.2 mph N/A   Overcast
12:50 PM 55.4 °F 55.4 °F 100% 29.76 in 10.0 mi SSE 19.6 mph 26.5 mph N/A   Overcast
1:10 PM 55.4 °F 55.4 °F 100% 29.76 in 4.0 mi SSE 19.6 mph 25.3 mph N/A Rain Light Rain
1:30 PM 55.4 °F 55.4 °F 100% 29.75 in 10.0 mi SSE 21.9 mph 27.6 mph N/A   Overcast
1:50 PM 55.4 °F 55.4 °F 100% 29.75 in 10.0 mi SSE 20.7 mph - N/A   Overcast
2:10 PM 55.4 °F 55.4 °F 100% 29.75 in 8.0 mi SSE 19.6 mph 27.6 mph N/A   Overcast
2:30 PM 57.2 °F 57.2 °F 100% 29.75 in 10.0 mi SSE 18.4 mph 26.5 mph N/A   Overcast
2:50 PM 57.2 °F 57.2 °F 100% 29.75 in 10.0 mi SSE 19.6 mph 26.5 mph N/A   Overcast
3:10 PM 57.2 °F 57.2 °F 100% 29.75 in 10.0 mi SE 17.3 mph 27.6 mph N/A   Overcast
3:30 PM 57.2 °F 57.2 °F 100% 29.75 in 10.0 mi SSE 19.6 mph 25.3 mph N/A   Overcast
3:50 PM 57.2 °F 57.2 °F 100% 29.75 in 10.0 mi SE 18.4 mph 24.2 mph N/A Rain Light Rain
4:10 PM 57.2 °F 57.2 °F 100% 29.75 in 10.0 mi SE 15.0 mph 23.0 mph N/A Rain Light Rain
4:30 PM 57.2 °F 57.2 °F 100% 29.75 in 10.0 mi SE 15.0 mph 20.7 mph N/A Rain Light Rain
4:50 PM 57.2 °F 57.2 °F 100% 29.75 in 10.0 mi SSE 15.0 mph - N/A Rain Light Rain
5:10 PM 57.2 °F 57.2 °F 100% 29.75 in 8.0 mi SE 15.0 mph 21.9 mph N/A   Overcast
5:30 PM 57.2 °F 57.2 °F 100% 29.75 in 3.0 mi SE 16.1 mph 21.9 mph N/A Rain Light Rain
5:50 PM 57.2 °F 57.2 °F 100% 29.75 in 1.8 mi SE 15.0 mph 21.9 mph 0.01 in Rain Rain
6:10 PM 57.2 °F 57.2 °F 100% 29.75 in 7.0 mi ESE 13.8 mph - N/A Rain Light Rain
6:30 PM 57.2 °F 57.2 °F 100% 29.74 in 8.0 mi SE 13.8 mph - N/A Rain Light Rain
6:50 PM 57.2 °F 57.2 °F 100% 29.74 in 5.0 mi ESE 12.7 mph - 0.02 in Rain Light Rain
7:10 PM 57.2 °F 57.2 °F 100% 29.74 in 10.0 mi ESE 13.8 mph 17.3 mph N/A Rain Light Rain
7:30 PM 57.2 °F 57.2 °F 100% 29.74 in 9.0 mi SE 15.0 mph 21.9 mph N/A Rain Light Rain
7:50 PM 57.2 °F 57.2 °F 100% 29.74 in 10.0 mi SE 19.6 mph 24.2 mph 0.01 in Rain Light Rain
8:10 PM 57.2 °F 57.2 °F 100% 29.74 in 10.0 mi SE 18.4 mph 25.3 mph N/A Rain Light Rain
8:30 PM 57.2 °F 57.2 °F 100% 29.75 in 10.0 mi SE 16.1 mph 20.7 mph N/A Rain Light Rain
8:50 PM 57.2 °F 57.2 °F 100% 29.75 in 9.0 mi ESE 17.3 mph 24.2 mph N/A Rain Light Rain
9:10 PM 57.2 °F 57.2 °F 100% 29.74 in 6.0 mi ESE 18.4 mph 26.5 mph N/A Rain Light Rain
9:30 PM 57.2 °F 57.2 °F 100% 29.74 in 5.0 mi ESE 20.7 mph 27.6 mph N/A Rain Light Rain
9:50 PM 55.4 °F 55.4 °F 100% 29.75 in 7.0 mi ESE 20.7 mph 27.6 mph N/A Rain Light Rain
10:10 PM 55.4 °F 55.4 °F 100% 29.75 in 9.0 mi East 20.7 mph 26.5 mph N/A Rain Light Rain
10:30 PM 55.4 °F 55.4 °F 100% 29.74 in 9.0 mi East 19.6 mph 26.5 mph N/A Rain Light Rain
10:50 PM 55.4 °F 55.4 °F 100% 29.74 in 5.0 mi East 20.7 mph 26.5 mph N/A Rain Light Rain
11:10 PM 55.4 °F 55.4 °F 100% 29.73 in 7.0 mi East 18.4 mph 23.0 mph N/A   Overcast
11:30 PM 55.4 °F 55.4 °F 100% 29.73 in 2.5 mi East 16.1 mph 21.9 mph N/A Rain Light Rain
11:50 PM 55.4 °F 55.4 °F 100% 29.72 in 3.0 mi East 15.0 mph - N/A Rain Light Rain